Location: Unspecified
(0.0000°N, 0.0000°E)
Time: 00:01:24
(UTC+00:00)

Vanguard 3 - Visible Passes

Search period start: 16 September 2019 00:00
Search period end: 26 September 2019 00:00
Orbit: 508 x 3263 km, 33.4° (Epoch: 14 September)

Date Brightness Start Highest point End Pass type
(mag) Time Alt. Az. Time Alt. Az. Time Alt. Az.
16 Sep 10.2 02:49:53 13° SSE 02:51:47 14° SE 02:56:28 10° ESE visible
16 Sep 9.4 04:55:20 10° SW 05:04:29 65° SE 05:20:34 10° ENE visible
16 Sep 8.9 18:45:21 10° WNW 18:52:47 34° SW 18:57:29 10° SSE visible
17 Sep 9.5 03:45:03 21° S 03:49:49 35° SE 04:01:26 10° ENE visible
18 Sep 10.2 02:35:39 15° SE 02:35:39 15° SE 02:40:43 10° ESE visible
18 Sep 9.0 04:40:15 14° SW 04:47:54 74° SE 05:03:14 10° ENE visible
18 Sep 9.4 18:28:58 10° W 18:36:37 29° SW 18:41:33 10° SSE visible
19 Sep 9.1 03:30:52 33° S 03:33:24 40° SE 03:44:38 10° ENE visible
20 Sep 10.2 02:21:30 16° ESE 02:21:30 16° ESE 02:24:51 10° E visible
20 Sep 8.6 04:26:07 26° SW 04:31:27 85° SE 04:45:51 10° NE visible
20 Sep 9.6 18:12:36 10° W 18:20:25 25° SW 18:25:34 10° SSE visible
21 Sep 8.7 03:16:45 46° SE 03:17:03 46° SE 03:27:48 10° ENE visible
21 Sep 9.3 05:21:51 10° WSW 05:30:34 53° NNW 05:45:44 10° NE visible
22 Sep 10.4 02:07:23 13° ESE 02:07:23 13° ESE 02:08:54 10° E visible
22 Sep 8.3 04:11:59 43° WSW 04:15:10 81° NW 04:28:27 10° NE visible
23 Sep 8.8 03:02:37 46° E 03:02:37 46° E 03:10:57 10° ENE visible
23 Sep 9.3 05:07:14 14° W 05:14:25 43° NNW 05:27:57 10° NE visible
24 Sep 8.0 03:57:51 59° WNW 03:59:02 66° NNW 04:11:02 10° NE visible
25 Sep 9.3 02:48:28 33° ENE 02:48:28 33° ENE 02:54:05 10° ENE visible
25 Sep 9.2 04:53:04 18° WNW 04:58:26 34° NNW 05:10:08 10° NE visible
